Probability
3 3 2 1 0 0 0 0 0 0 0 0 0 0 1 0 0 0 0 0 0 0 1 2 3 3 3 2 2 2 2 2 2 1 0 0 0 0
3 3 3 2 1 1 0 0 0 0 0 0 0 0 1 1 0 0 0 0 0 0 0 1 2 2 2 1 1 1 1 1 2 2 1 0 0 0
2 3 4 4 3 3 1 1 1 1 1 1 1 1 2 2 2 1 1 0 0 0 0 0 1 1 1 0 0 0 0 1 2 3 2 1 0 0
4 5 5 5 5 4 3 2 2 2 2 2 2 2 3 4 5 4 3 2 1 0 0 0 0 0 0 0 0 0 0 0 1 2 2 2 1 0
7 8 8 7 6 4 4 3 3 4 3 3 3 3 3 4 7 8 6 5 3 1 1 0 0 0 0 0 0 0 0 0 0 1 1 2 1 1
9 10 10 9 7 6 5 5 5 5 5 4 4 3 3 4 7 9 8 6 4 3 2 1 1 0 0 0 0 0 0 0 0 0 0 1 1 0
10 10 10 9 9 9 8 8 8 8 7 6 6 5 4 4 6 8 8 7 6 5 4 3 2 1 0 0 0 0 0 0 0 0 0 0 0 0
9 9 9 9 10 10 10 9 9 9 8 8 8 7 6 5 5 6 7 7 6 6 6 6 5 2 0 0 0 0 0 0 0 0 0 0 0 0
9 9 9 10 10 10 10 9 8 8 8 8 8 8 7 5 5 5 6 6 6 6 6 6 6 4 2 1 0 0 0 0 0 0 0 0 0 0
10 10 11 11 11 10 10 9 9 8 6 6 6 6 5 3 3 4 5 6 6 5 5 6 6 6 5 4 2 0 0 0 0 0 0 0 0 0
11 11 12 11 10 9 9 10 9 7 5 4 3 3 2 1 1 2 3 4 5 5 6 6 6 6 6 5 3 1 0 0 0 0 0 0 0 0
12 12 12 11 9 7 7 8 7 5 4 3 2 1 1 0 0 0 2 3 4 4 5 6 6 6 6 5 3 2 1 0 0 0 0 0 0 0
13 13 12 9 6 4 4 5 4 3 3 3 3 1 0 0 0 0 2 4 3 4 5 5 5 5 5 3 2 2 1 0 0 0 0 0 0 0
11 12 11 7 3 1 1 2 1 1 1 1 2 2 1 1 0 0 1 3 4 4 5 5 5 4 4 2 1 1 1 0 0 0 0 0 0 0
7 7 7 4 1 0 0 0 0 0 0 0 1 2 2 2 1 1 2 3 3 4 4 4 4 4 3 3 2 1 0 0 0 0 0 0 0 0
2 2 2 1 0 0 0 0 0 0 0 0 0 1 2 3 4 4 5 4 4 4 4 4 4 5 4 4 3 2 1 1 1 1 0 0 0 0
0 1 1 0 0 0 0 0 0 0 0 0 0 0 1 3 5 7 7 6 6 6 6 6 6 6 6 5 4 3 3 2 2 2 1 1 0 0
1 1 1 0 0 0 0 0 0 0 0 0 0 0 0 2 4 7 7 7 7 7 7 7 7 6 6 5 4 3 3 3 3 3 3 2 1 0
0 1 1 0 0 0 0 0 0 0 0 0 0 0 0 0 2 3 5 6 6 6 6 5 5 4 4 4 3 2 2 2 2 3 3 3 2 1
0 1 1 1 1 1 1 1 2 1 1 1 1 2 1 0 0 1 2 3 3 3 3 3 2 3 3 3 3 1 1 2 2 2 3 3 3 3
1 2 2 2 2 2 2 3 3 3 2 2 2 2 1 0 0 0 0 1 1 1 1 1 1 1 3 3 3 2 1 1 1 1 2 3 3 3
3 3 3 3 3 3 3 3 2 2 2 2 1 1 1 0 0 0 0 0 0 0 0 0 0 1 2 3 3 3 1 0 0 0 1 1 2 2
3 3 3 3 3 3 3 2 1 1 1 1 0 0 0 0 0 0 0 0 0 0 0 0 0 0 1 3 3 3 2 1 0 0 0 0 1 1
Wind_Speed
2 1 1 1 1 1 2 3 3 2 3 3 2 3 2 3 5 4 4 7 8 9 10 10 10 10 10 10 9 9 8 8 8 8 8 8 8 8
1 1 1 2 1 1 1 1 2 3 3 3 3 3 3 3 5 4 5 7 8 8 9 10 11 11 11 11 10 10 9 9 9 9 8 8 8 8
1 1 2 2 1 1 1 1 2 2 3 4 2 2 2 3 2 3 3 4 4 8 9 10 10 11 11 12 11 11 11 10 10 10 10 9 9 9
2 2 2 1 1 1 1 2 2 2 3 4 3 2 2 3 2 3 3 4 4 7 9 10 10 10 11 12 12 12 11 11 11 10 10 10 10 10
2 2 3 1 2 2 1 2 2 2 1 2 3 2 1 1 1 2 3 2 4 6 8 9 10 10 10 11 11 11 11 11 11 11 10 9 9 9
2 3 3 3 3 3 2 3 2 2 1 1 2 2 1 1 0 1 2 2 3 4 4 5 7 9 10 10 10 10 10 11 11 11 10 10 10 10
2 2 2 2 3 2 2 2 1 1 1 1 2 1 1 1 2 2 3 2 3 2 2 2 2 3 5 8 9 10 10 11 11 11 11 10 10 10
2 2 2 1 2 2 3 3 2 2 2 2 2 2 3 3 2 2 1 1 3 2 1 3 2 3 3 4 7 9 11 11 11 11 11 11 10 10
2 2 2 2 2 2 3 3 3 3 4 3 3 4 3 3 2 2 2 2 4 3 1 3 2 3 3 4 7 8 9 10 10 10 10 10 10 10
2 2 2 2 2 2 2 2 3 3 3 3 3 4 4 3 3 3 3 3 3 2 1 2 2 2 3 3 6 8 9 9 9 9 8 9 9 9
2 1 1 1 3 2 1 2 3 3 3 2 2 3 3 3 2 1 1 1 3 3 1 2 2 2 2 2 3 5 7 7 8 9 8 8 8 7
2 2 1 2 2 1 1 2 2 3 2 3 3 4 3 3 3 2 3 2 2 3 2 2 2 1 2 2 2 2 3 5 7 8 8 8 7 5
2 2 2 3 3 3 2 2 4 3 1 1 2 3 3 2 2 2 3 3 3 4 3 2 2 1 2 2 2 2 2 2 3 4 7 8 8 7
2 2 2 3 3 3 2 2 3 2 1 1 2 3 3 3 3 3 3 4 4 5 4 3 3 3 2 3 3 2 2 2 2 2 3 4 6 8
2 2 3 3 3 2 3 3 2 1 1 1 2 3 3 3 3 3 3 3 3 4 4 3 3 3 3 3 3 3 2 2 2 2 2 3 3 3
1 2 3 3 2 2 3 3 1 1 1 1 2 3 3 3 3 2 2 2 2 3 3 2 3 3 3 3 3 3 3 2 2 3 2 3 3 3
1 1 2 2 3 3 2 2 2 2 1 2 2 3 3 3 3 3 2 2 2 3 3 3 2 2 4 3 3 3 3 2 2 2 2 2 3 3
2 1 1 1 1 2 2 2 2 2 2 2 2 2 3 3 3 3 2 2 2 3 3 3 2 2 2 3 4 4 3 3 2 2 2 2 3 3
3 1 1 1 1 1 1 1 2 2 2 2 2 3 3 3 3 3 3 2 3 3 3 3 2 1 2 4 4 4 3 3 2 2 3 3 4 4
1 1 0 1 1 1 1 1 2 2 2 2 2 2 3 3 3 3 3 3 3 3 3 3 2 3 4 4 4 3 4 4 3 3 2 2 2 3
0 0 0 0 1 2 2 1 2 2 2 2 2 2 2 2 3 4 3 4 3 3 3 4 5 6 3 1 2 3 3 4 4 3 2 1 2 2
0 0 1 1 1 1 1 1 2 2 2 2 2 3 3 2 3 4 3 3 3 3 4 4 4 3 1 2 3 3 3 3 2 2 3 4 3 3
1 1 1 1 1 1 1 1 2 2 2 2 2 3 3 3 3 3 3 3 3 3 3 3 3 2 2 2 2 2 3 3 2 1 3 4 4 4
Wind_Direction
224 219 233 251 223 209 194 179 181 235 268 260 259 251 236 227 219 209 216 222 221 219 220 221 219 217 218 219 217 215 215 213 215 219 222 227 235 237
222 223 249 241 242 231 206 212 193 200 249 256 244 253 246 239 222 216 221 225 226 224 223 222 222 221 219 219 215 211 210 211 213 216 220 226 233 233
268 243 260 254 254 255 226 232 230 204 243 272 263 263 229 242 239 232 227 223 231 228 225 224 224 224 222 219 215 212 212 214 216 219 222 226 229 231
258 254 263 264 269 267 253 249 242 223 217 264 283 280 242 231 227 235 242 236 235 237 231 228 225 225 224 219 215 214 215 217 218 221 225 226 228 231
243 241 256 258 264 262 260 261 263 261 227 239 272 277 267 250 251 262 262 262 251 247 237 233 231 229 226 223 219 218 220 221 222 224 224 225 230 233
256 246 244 239 240 240 247 251 255 262 262 254 269 289 288 279 203 252 280 268 263 262 252 240 233 230 229 226 222 220 221 222 223 223 223 224 228 231
287 274 257 254 249 237 242 250 245 246 252 256 270 299 299 307 256 242 255 274 270 253 256 252 228 227 226 229 228 226 224 224 223 221 222 225 227 229
281 296 290 289 298 267 248 246 219 225 238 240 250 254 260 254 256 248 251 282 284 264 224 263 224 233 234 225 227 225 225 226 224 222 223 226 229 229
263 280 298 307 299 288 288 289 276 253 234 226 237 248 248 240 229 250 242 240 253 260 222 266 252 251 248 241 230 226 224 223 223 223 223 225 226 227
257 239 247 282 303 287 278 290 289 289 273 244 235 250 252 241 219 221 230 256 282 286 207 248 269 262 271 257 238 229 227 226 227 225 223 223 224 224
283 266 234 259 302 309 277 282 296 302 304 288 270 280 286 274 246 200 256 265 287 286 246 219 258 275 277 265 257 236 232 232 228 227 225 223 222 219
294 289 284 283 294 297 236 245 270 284 310 328 319 310 299 300 285 222 213 222 252 272 255 212 247 237 286 279 269 258 243 243 236 231 227 224 218 207
296 304 309 322 314 297 246 235 253 263 285 293 298 300 302 297 280 251 228 208 218 244 243 200 225 219 219 270 288 263 244 243 227 228 225 226 219 201
266 281 298 318 317 319 300 288 291 306 315 318 316 311 298 289 281 267 251 240 232 235 242 205 212 217 222 247 265 270 260 246 221 224 223 225 225 224
269 295 316 324 323 324 336 339 345 0 335 319 304 295 287 280 285 287 281 271 273 265 258 232 222 220 213 230 246 248 259 253 223 222 224 217 217 208
329 328 341 347 355 353 355 356 4 319 259 267 285 292 304 310 298 280 274 283 290 292 291 269 242 222 227 236 232 249 244 240 241 230 230 236 225 215
356 31 29 22 12 0 351 339 342 354 337 313 304 305 306 306 296 286 269 271 264 273 289 291 279 256 238 228 236 246 246 245 238 224 217 241 244 232
105 64 360 352 343 336 330 330 336 332 320 318 314 306 306 305 303 304 296 277 272 270 269 270 287 318 319 286 232 231 244 248 243 224 205 219 251 252
96 76 9 345 336 333 325 325 327 316 323 330 318 315 314 314 313 314 314 308 293 282 277 274 262 249 273 284 281 227 227 249 242 229 219 214 235 248
81 111 234 311 324 312 314 323 321 328 332 325 319 322 324 322 320 316 313 307 299 297 296 294 281 261 243 252 261 261 236 226 225 231 237 237 252 261
78 28 317 308 320 307 305 312 314 313 320 325 324 319 321 326 320 313 311 314 311 306 302 299 289 290 273 263 272 278 271 252 227 217 214 216 262 281
173 225 268 278 289 310 325 333 332 329 335 332 325 323 323 323 313 311 312 313 313 302 295 295 304 316 311 260 266 272 283 295 297 296 258 217 200 212
215 230 240 265 292 314 334 6 357 341 345 344 337 334 335 330 319 315 318 317 316 314 312 316 325 328 313 284 279 279 278 284 291 307 303 298 259 242